Terminal Aerodrome Forecast
Issued by NWS

Home | Current Version | Previous Version | Text Only | Print | Product List | Glossary On
Versions: 1 2 3 4 5 6 7 8 9 10 11 12 13 14 15 16 17 18
000
FTUS44 KMAF 251601 AAB
TAFCNM
TAF AMD
KCNM 251601Z 2516/2612 26020G30KT P6SM BKN250
     FM251800 26032G40KT P6SM SCT250
     FM260700 30022G30KT P6SM SCT070=

USA.gov is the U.S. government's official web portal to all federal, state and local government web resources and services.